Regional Weather Roundup
Issued by NWS

Home | Current Version | Previous Version | Graphics & Text | Print | Product List | Glossary Off
Versions: 1 2 3 4 5 6 7 8 9 10 11 12 13 14 15 16 17 18 19 20 21 22 23 24 25 26 27 28 29 30 31 32 33 34 35 36 37 38 39 40 41 42 43 44 45 46 47 48 49 50

000
ASUS43 KMKX 310621
RWRWI

WISCONSIN REGIONAL WEATHER ROUNDUP
NATIONAL WEATHER SERVICE MILWAUKEE/SULLIVAN WI
100 AM CDT MON AUG 31 2015

NOTE: "FAIR" INDICATES FEW OR NO CLOUDS BELOW 12,000 FEET WITH NO
SIGNIFICANT WEATHER AND/OR OBSTRUCTIONS TO VISIBILITY.

WIZ001-002-006>008-014>016-023>028-310700-
NORTHWEST WISCONSIN

CITY           SKY/WX    TMP DP  RH WIND       PRES   REMARKS
SUPERIOR ARPT  FAIR      66  65  94 SW6       29.88S
6HR MIN TEMP:  62; 6HR MAX TEMP:  76;

ASHLAND        FAIR      66  66 100 SW8       29.91S
6HR MIN TEMP:  66; 6HR MAX TEMP:  74;

HAYWARD        FAIR      65  63  93 S7        29.95S
6HR MIN TEMP:  64; 6HR MAX TEMP:  73;

SIREN          FAIR      67  64  92 S6        29.93S
6HR MIN TEMP:  67; 6HR MAX TEMP:  76;

CUMBERLAND     FAIR      61  59  94 S5        29.96S FOG
RICE LAKE      FAIR      61  60  94 SE6       29.98S
6HR MIN TEMP:  61; 6HR MAX TEMP:  71;

CHETEK         FAIR     N/A N/A N/A CALM      29.98R
LADYSMITH      FAIR      63  61  96 SE3       30.00S FOG
6HR MIN TEMP:  63; 6HR MAX TEMP:  73;

EAU CLAIRE     FAIR      62  60  93 S5        29.97R
6HR MIN TEMP:  62; 6HR MAX TEMP:  73;

MENOMONIE      FAIR      61  60  97 SE3       29.98S FOG
6HR MIN TEMP:  62; 6HR MAX TEMP:  73;

NEW RICHMOND   FAIR      64  63  98 S7        29.96S
6HR MIN TEMP:  64; 6HR MAX TEMP:  73;

OSCEOLA        FAIR      64  64 100 S6        29.97R
6HR MIN TEMP:  64; 6HR MAX TEMP:  75;

$$

WIZ003>005-009-010-017-018-310700-
NORTH CENTRAL WISCONSIN

CITY           SKY/WX    TMP DP  RH WIND       PRES   REMARKS
MANITOWISH WTR CLOUDY    64  64 100 SW5       29.98S
6HR MIN TEMP:  63; 6HR MAX TEMP:  73;

ARBOR VITAE    FAIR      62  61  96 CALM      29.99S
6HR MIN TEMP:  62; 6HR MAX TEMP:  72;

WOODRUFF       FAIR      62  61  96 CALM      29.99S
6HR MIN TEMP:  62; 6HR MAX TEMP:  72;

RHINELANDER    CLOUDY    63  62  97 SW6       30.01R
6HR MIN TEMP:  63; 6HR MAX TEMP:  73;

EAGLE RIVER    FAIR      63  62  99 SW5       29.99S
6HR MIN TEMP:  62; 6HR MAX TEMP:  72;

LAND O LAKES   FAIR      64  63  97 SW5       29.99S
6HR MIN TEMP:  64; 6HR MAX TEMP:  73;

PHILLIPS       CLOUDY    62  62 100 SW6       29.98S
6HR MIN TEMP:  61; 6HR MAX TEMP:  73;

TOMAHAWK       FOG       58  57  97 CALM      30.00F VSB 1/4
6HR MIN TEMP:  58; 6HR MAX TEMP:  71;

MEDFORD        FOG       58  58 100 S3        30.01S VSB 1/4
6HR MIN TEMP:  58; 6HR MAX TEMP:  69;

MERRILL        FOG       56  56 100 CALM      30.00F VSB 1/2
6HR MIN TEMP:  56; 6HR MAX TEMP:  73;

$$

WIZ029-030-035-036-043>047-310700-
CENTRAL WISCONSIN

CITY           SKY/WX    TMP DP  RH WIND       PRES   REMARKS
WAUSAU         FAIR      63  62  97 SW5       30.00R
6HR MIN TEMP:  62; 6HR MAX TEMP:  73;

MOSINEE        FAIR      59  59 100 SW3       30.02R FOG
MARSHFIELD     FOG       61  58  90 SW6       30.01R VSB 1/4
6HR MIN TEMP:  61; 6HR MAX TEMP:  67;

STEVENS POINT  FAIR      60  60  99 CALM      30.01S FOG
6HR MIN TEMP:  60; 6HR MAX TEMP:  71;

WAUPACA        FOG       61  60  97 CALM      30.01R VSB 3/4
6HR MIN TEMP:  61; 6HR MAX TEMP:  73;

WAUTOMA        FOG       57  57 100 CALM      30.01F VSB 1/4
6HR MIN TEMP:  58; 6HR MAX TEMP:  73;

WISC RAPIDS    FAIR      62  59  90 CALM      30.02R FOG
6HR MIN TEMP:  61; 6HR MAX TEMP:  72; 6HR PCP: TRACE;

CAMP DOUGLAS   FOG       55  55 100 E1        30.00S VSB 1/2
                                      6HR PCP: TRACE;

$$

WIZ011>013-019>022-031-037>040-048>050-310700-
NORTHEAST WISCONSIN

CITY           SKY/WX    TMP DP  RH WIND       PRES   REMARKS
ANTIGO         FOG       58  58 100 CALM      30.01S VSB 1/4
SHAWANO        FAIR      65  63  94 CALM      29.99S FOG
6HR MIN TEMP:  65; 6HR MAX TEMP:  73;

OCONTO         FAIR      60  60 100 CALM      29.98S
6HR MIN TEMP:  60; 6HR MAX TEMP:  71;

STURGEON BAY   FAIR      63  57  82 S5        30.01S
6HR MIN TEMP:  63; 6HR MAX TEMP:  68;

GREEN BAY      FAIR      63  61  93 S3        30.00S FOG
6HR MIN TEMP:  61; 6HR MAX TEMP:  70;

MANITOWOC      FOG       61  59  94 MISG      30.01S VSB 1/4
6HR MIN TEMP:  60; 6HR MAX TEMP:  64;

APPLETON       FAIR      61  61 100 S6        29.99S
CLINTONVILLE   FOG       59  59 100 S3        30.00R VSB 3/4
OSHKOSH        FAIR      62  60  93 S6        30.01S
6HR MIN TEMP:  59; 6HR MAX TEMP:  69;

$$

WIZ032>034-041-042-053>061-310700-
SOUTHWEST WISCONSIN

CITY           SKY/WX    TMP DP  RH WIND       PRES   REMARKS
LA CROSSE      FAIR      64  63  96 SE3       29.99S FOG
6HR MIN TEMP:  63; 6HR MAX TEMP:  73;

SPARTA         FAIR      56  55  95 CALM      30.02R
6HR MIN TEMP:  56; 6HR MAX TEMP:  71;

VIROQUA          N/A     61  61 100 SW3       30.02S
6HR MIN TEMP:  61; 6HR MAX TEMP:  69;

BOSCOBEL       FOG       59  58  96 CALM      30.02S VSB 1/4
6HR MIN TEMP:  59; 6HR MAX TEMP:  73;

PRAIRIE DU CHI FAIR      62  60  95 CALM      30.01S FOG
6HR MIN TEMP:  61; 6HR MAX TEMP:  73;

PLATTEVILLE    FAIR      62  62  99 S5        30.03S
6HR MIN TEMP:  62; 6HR MAX TEMP:  70;

$$

WIZ056-057-062-063-064-067-068-310700-
SOUTH CENTRAL WISCONSIN

CITY           SKY/WX    TMP DP  RH WIND       PRES   REMARKS
REEDSBURG      FAIR      62  62 100 CALM      30.01S
6HR MIN TEMP:  61; 6HR MAX TEMP:  71;

BARABOO/DELLS  FAIR      61  59  94 CALM      30.02S FOG
6HR MIN TEMP:  61; 6HR MAX TEMP:  71;

LONE ROCK      FOG       59  58  96 CALM      30.03S VSB 1/4
6HR MIN TEMP:  59; 6HR MAX TEMP:  73;

MINERAL POINT    N/A     63  63 100 S3        30.04S FOG
MADISON        FAIR      66  62  87 CALM      30.02S
6HR MIN TEMP:  64; 6HR MAX TEMP:  72;

MIDDLETON      MOCLDY    60  60 100 CALM      30.03S VSB 1/4
6HR MIN TEMP:  59; 6HR MAX TEMP:  73;

WATERTOWN      FAIR      61  61 100 CALM      30.03S FOG
6HR MIN TEMP:  61; 6HR MAX TEMP:  69;

MONROE         FAIR      63  61  94 S6        30.04S
JANESVILLE     FAIR      61  59  94 CALM      30.03S FOG
$$

WIZ051-052-058>065-066-070>072-310700-
SOUTHEAST WISCONSIN

CITY           SKY/WX    TMP DP  RH WIND       PRES   REMARKS
MILWAUKEE      FAIR      63  60  90 SW3       30.03S FOG
6HR MIN TEMP:  62; 6HR MAX TEMP:  66;

WAUKESHA       FAIR      61  59  94 SW3       30.04S
MILWAUKEE/TIMM   N/A     61  59  94 CALM      30.03S FOG
RACINE         FAIR      62  60  93 SW5       30.05S FOG
6HR MIN TEMP:  62; 6HR MAX TEMP:  67;

BURLINGTON     FOG       56  55  99 CALM      30.04S VSB 1/2
6HR MIN TEMP:  55; 6HR MAX TEMP:  67;

KENOSHA        FOG       60  59  96 SW3       30.04S VSB 1/4
6HR MIN TEMP:  59; 6HR MAX TEMP:  67;

FOND DU LAC    FAIR      60  59  96 S5        30.02S
6HR MIN TEMP:  60; 6HR MAX TEMP:  70;

SHEBOYGAN      FOG       57  57 100 CALM      30.02S VSB 1/2
6HR MIN TEMP:  57; 6HR MAX TEMP:  66;

WEST BEND      FOG       59  59 100 CALM      30.03S VSB 1/2
JUNEAU         FAIR      62  61  97 S3        30.04S FOG
6HR MIN TEMP:  62; 6HR MAX TEMP:  69; 6HR PCP:  0.01;

$$

LSZ147-162-310700-
LAKE SUPERIOR

STATION/POSITION TIME  TEMP    WIND        PRES    WAVE
                       AIR SEA DIR/SP/G            HT/PER
                 (UTC) (F)     (DEG/KT/KT) (MB)    (FT/S)
W MID LAKE BUOY  0550   60 55  210/ 10/ 10 1011.9R   1
DEVILS ISLAND    0600   68     200/  3/  4 1011.9R
PORT WING        0500   70     180/  7/  9 1011.9S
SAXON HARBOR     0540   70     190/  3/ 11 1012.2R
$$

LMZ867-665-643>646-310700-
LAKE MICHIGAN

STATION/POSITION TIME  TEMP    WIND        PRES    WAVE
                       AIR SEA DIR/SP/G            HT/PER


USA.gov is the U.S. government's official web portal to all federal, state and local government web resources and services.